STARLINK-11613, 63136

Orbit data source: Space-Track

STARLINK-11613, 63136 is a payload satellite owned by SpaceX/Seattle (US) in LEO that was launched on Mon, 03 Mar 2025 UTC via an FALCON 9 launch vehicle from the Air Force Eastern Test Range (AFETR). Payload-class satellites include a variety of spacecraft equipped with specific instruments for various scientific and technological missions. These include communications satellites like Starlink; space stations such as the ISS; scientific satellites like the Hubble; Earth observation satellites from companies like Planet Labs, Umbra, and HawkEye 360; GPS; miniature CubeSats for education and research; and military/defense satellites.

Loading next visibility...
Identifier
63136, 2025-043E
Orbit
LEO
Country
Flag of USUS
Related business
Manufacturer
SpaceX/Seattle
Mission
Operational Commercial Communications
Bus & Motor
STARLINK V2MD, Unknown motor
Mass
960 kg wet, ~910 kg dry
Launch date (UTC)
2025-03-03 (2 years ago)
Launch vehicle
FALCON 9
Launch site
Air Force Eastern Test Range (AFETR)
Object type
Payload
Rocket body
Debris
Shape & HBR
Box + 2 Pan, 18.1 m
Radar Cross Section
36.964 m², Large (>1 m²)

Expand to show TLE details & history
Last TLE update: 1 day ago

TLE from 1 day ago
0 STARLINK-11613
1 63136U 25043E   26255.27600480  .00134599  00000-0  10331-2 0  9991
2 63136  43.0021 206.3637 0002075 278.2322  81.8310 15.70896324 88819
Epoch: 2026-09-12T06:37Z
TLE epoch observation values (Epoch: 2026-09-12T06:37:26.814Z)
Latitude
-0.00005°
Longitude
115.71459°
Altitude
355.907 km
Speed
7.698 km/s
True Right ascension
13h 45m 27s
True Declination
0° 00' 00"
Sunlit
Object was in daylight at epoch
Visualization orbit readout
Latitude
Unknown
Longitude
Unknown
Altitude
Unknown
Speed
Unknown
Apparent Right ascension
Unknown
Apparent Declination
Unknown
Sunlit
N/A
Visualization observer readout
Local Sidereal Time
23:49:17
Azimuth
Unknown
Elevation
Unknown
Doppler factor
Unknown
Orbital elements
Apogee altitude
359.713 km
Perigee altitude
356.918 km
Semi-major axis
6,736.452 km
Eccentricity
0.00021
Inclination
43.0021°
RAAN
206.3637°
Arg. of periapsis
278.2322°
True anomaly
81.85454°
Mean anomaly
81.831°
Eccentric anomaly
81.84277°
Mean motion
3.92551 °/min
Orbital period
91.71 mins
BSTAR
0.0010331
Loading maneuver chart data...
Computing Atmospheric mass density...
Loading historical data...
Loading historical data...
Loading historical data...
Loading historical data...
Loading historical data...
Loading historical data...
Loading historical data...

Documentation

Showing up to 5 results
|